SCP
3 3 3 2 1 1 1 1 1 1 2 2 3 3 2 1 1 1 1 0 0 1 1 1 1 1 1 1 1 2 2 2 2 2 2 2 2 1 1 1 1 1 1
4 4 3 2 1 1 1 1 1 1 1 2 3 3 3 3 2 1 1 1 1 1 1 1 1 1 1 1 1 1 2 2 2 2 2 2 2 2 1 1 1 1 1
5 5 4 3 2 1 1 1 2 1 1 2 3 3 4 4 4 3 2 1 1 1 1 1 1 1 1 1 1 1 1 1 1 1 2 2 2 2 2 1 1 1 0
5 6 5 4 3 2 2 2 2 2 1 1 2 2 3 4 4 4 3 2 2 2 2 2 1 1 1 1 1 2 2 2 2 2 2 2 2 2 2 2 1 1 1
5 5 6 5 4 3 3 2 2 2 1 1 1 1 1 2 2 3 3 3 2 2 2 2 2 1 1 1 1 2 2 2 3 3 3 3 3 2 2 2 2 2 2
3 4 4 5 5 4 4 3 3 2 2 2 2 2 1 1 1 2 2 2 2 2 3 3 3 2 2 2 2 2 2 2 3 4 4 3 3 3 3 2 2 2 2
2 3 3 3 4 4 4 4 3 3 3 3 2 2 2 1 1 1 2 2 2 2 3 3 3 3 3 2 2 2 2 2 3 4 4 4 4 4 4 3 2 2 2
3 3 3 3 3 3 3 3 4 4 4 3 3 2 2 2 1 1 1 2 2 2 3 3 3 3 3 3 3 3 3 3 3 3 4 4 4 4 4 3 3 3 2
3 3 3 3 3 2 2 2 3 4 4 4 4 3 3 2 2 2 2 2 3 3 3 3 3 3 3 2 3 3 4 3 3 3 3 3 3 3 3 3 4 4 4
4 4 4 3 3 3 2 3 3 3 3 4 4 4 3 3 3 2 2 3 4 4 5 4 3 3 2 2 2 3 3 3 2 2 3 2 2 2 3 3 4 4 4
5 4 4 4 4 4 4 4 4 4 4 4 5 4 4 4 4 3 3 3 4 5 6 5 4 3 2 1 1 2 2 2 2 2 3 3 3 3 3 3 3 3 4
4 4 4 5 5 6 6 6 7 8 8 7 6 6 5 4 4 3 2 2 4 5 6 6 5 3 2 1 1 2 1 1 2 3 3 4 4 4 3 3 2 3 3
4 4 4 5 6 6 6 6 7 10 12 13 11 8 6 5 5 4 3 2 2 4 5 5 4 3 2 1 2 1 1 2 2 3 3 3 3 3 2 2 2 2 2
4 3 3 4 4 5 4 4 5 7 11 14 13 8 6 6 6 6 5 4 4 4 5 5 4 4 3 3 3 3 2 2 2 2 2 2 2 2 2 1 2 2 3
4 3 3 3 3 3 3 3 3 4 6 8 9 7 6 6 6 6 7 6 6 5 6 6 6 6 5 4 4 4 3 2 2 2 2 2 2 2 1 1 2 2 2
3 3 3 3 3 4 4 3 2 3 3 3 4 5 6 5 5 4 4 4 4 4 5 6 6 5 5 4 3 3 2 2 2 2 1 1 2 2 2 2 2 2 2
3 3 2 3 3 4 4 3 3 3 3 3 3 3 4 4 3 2 1 1 1 2 3 3 3 3 3 2 2 2 2 2 2 2 2 2 2 2 2 2 2 1 1
3 3 3 3 3 3 4 4 4 4 4 3 2 2 1 1 1 0 0 0 0 1 2 2 2 1 1 1 1 1 1 2 3 3 3 2 2 2 2 1 1 1 1
4 4 4 3 3 3 3 4 4 4 5 4 3 2 1 0 0 0 0 0 0 1 1 1 1 1 1 1 1 1 1 2 3 3 3 3 2 2 2 1 1 1 1
5 5 5 4 3 3 3 3 4 4 5 5 4 3 2 2 1 0 0 0 0 0 1 1 1 1 1 0 1 1 1 1 2 3 4 3 3 2 2 2 1 1 1
4 4 4 4 3 3 3 3 3 4 5 6 5 5 4 3 2 1 1 0 0 0 1 1 1 1 0 0 1 1 1 1 2 2 3 3 3 2 2 2 2 2 1
4 4 4 3 3 3 3 3 3 4 5 6 6 5 4 3 2 2 1 0 0 0 0 1 1 0 0 0 0 0 1 1 1 2 2 3 2 2 2 1 1 1 1
3 3 3 2 2 2 2 2 3 3 4 4 4 4 3 2 1 1 1 0 0 0 0 0 0 0 0 0 0 0 0 0 1 1 1 2 2 2 2 1 1 1 1
2 2 2 2 2 2 2 2 2 3 3 2 2 2 2 1 1 0 0 0 0 0 0 0 0 0 0 0 0 0 0 0 0 0 1 1 2 2 2 2 1 1 1
2 2 2 2 2 2 2 2 2 2 2 2 2 2 1 1 1 0 0 0 0 0 0 0 0 0 0 0 0 0 0 0 0 0 0 1 1 2 2 1 1 1 1
2 2 2 2 3 3 3 3 2 2 2 2 2 2 2 1 1 0 0 0 0 0 0 0 0 0 0 0 0 0 0 0 0 0 0 0 1 1 1 1 1 1 1
Wind_Speed
6 6 5 5 5 4 4 4 4 3 3 2 2 2 2 2 2 1 2 1 2 2 2 2 3 2 2 1 1 2 2 2 2 1 0 1 1 1 1 1 0 0 0
6 6 6 5 4 4 4 4 4 3 3 3 2 2 2 2 2 2 2 2 2 2 3 2 3 2 2 1 1 2 2 2 2 2 1 0 0 1 1 1 1 1 0
6 6 6 5 5 5 5 4 4 3 3 2 2 2 2 2 2 2 2 2 2 3 2 2 2 1 2 1 1 1 1 1 2 2 1 0 0 0 1 1 1 1 1
6 6 6 6 6 5 4 4 3 3 3 3 2 3 2 2 2 2 2 2 2 2 2 2 2 2 2 2 2 2 1 1 2 2 1 1 1 0 1 0 1 1 1
5 5 6 5 4 4 4 4 3 3 3 3 3 2 2 2 2 2 2 2 2 2 1 1 2 2 2 2 2 2 2 2 2 2 1 1 1 1 2 1 2 1 2
5 5 4 4 4 4 4 4 4 3 3 3 3 3 2 2 2 3 2 2 2 2 2 2 2 1 2 2 2 3 4 3 3 3 2 2 3 3 2 2 2 1 2
4 4 4 4 4 4 4 4 4 4 3 3 2 2 3 2 2 3 3 2 2 2 2 2 2 1 1 1 2 2 3 4 5 4 4 4 4 3 3 3 3 3 3
4 4 3 3 3 3 3 4 4 3 3 3 3 3 2 3 3 3 3 2 2 2 2 2 2 2 1 1 2 1 2 3 4 4 4 4 3 3 3 3 3 2 2
4 4 4 4 4 3 3 3 3 2 2 2 2 2 2 3 3 3 3 1 1 2 2 2 2 2 2 2 2 2 3 3 2 2 3 2 2 2 3 2 1 1 2
5 4 4 4 4 4 4 3 2 2 3 2 2 2 3 3 2 3 3 1 2 2 2 2 2 3 3 2 3 3 3 4 2 2 1 1 1 2 3 3 3 3 2
4 4 4 3 3 4 3 3 2 2 2 2 2 1 2 3 3 2 3 2 2 2 2 2 2 3 3 3 3 3 5 3 2 2 1 1 1 1 2 3 3 3 3
3 4 4 4 3 3 3 3 2 3 2 2 2 1 1 2 2 2 3 4 3 3 3 3 3 3 3 3 3 3 3 1 1 1 1 2 2 2 2 3 3 3 3
4 4 4 4 3 3 4 4 3 3 2 2 2 2 2 2 2 3 3 4 4 3 3 3 3 3 2 2 3 3 2 1 1 2 3 3 3 2 2 1 2 2 3
5 4 3 4 3 2 3 3 3 3 3 3 3 3 3 2 2 2 2 2 3 3 3 3 2 2 2 2 1 1 2 1 2 3 3 2 2 1 1 1 1 1 1
4 4 4 4 4 3 3 3 4 4 5 5 4 4 4 4 4 5 3 3 3 3 1 1 0 0 1 1 1 1 1 1 2 2 2 2 2 1 1 1 1 1 1
5 4 4 3 3 3 3 1 1 2 4 6 6 5 4 5 4 4 5 5 4 2 2 1 1 1 2 2 2 2 2 2 2 2 2 2 3 2 2 1 1 2 2
6 5 4 4 3 3 3 3 2 2 1 3 5 5 5 4 4 3 3 2 2 3 2 1 2 2 2 2 2 2 2 3 2 2 2 2 3 3 2 2 2 2 3
5 5 4 4 4 4 4 4 3 3 2 1 2 3 3 3 3 3 2 3 1 1 1 2 2 2 2 2 2 2 3 2 2 2 2 2 2 3 3 3 3 3 3
4 4 4 3 3 4 4 3 3 3 3 2 1 1 1 1 1 2 3 2 2 2 2 2 2 2 2 2 2 2 3 3 2 2 2 3 2 3 3 3 3 3 3
3 5 4 3 3 3 3 3 3 3 3 2 3 2 1 1 1 1 2 2 1 1 1 2 2 2 2 2 2 2 2 2 2 2 2 2 2 3 3 4 3 3 3
3 3 4 3 3 3 3 3 3 3 3 3 3 3 4 3 3 3 2 2 2 2 2 2 1 1 1 1 1 2 2 2 2 2 2 2 2 3 3 3 3 3 3
3 2 3 3 2 2 3 3 3 3 3 3 2 2 4 2 2 2 2 2 2 1 1 1 1 1 1 1 1 1 2 2 2 2 2 2 2 2 2 2 2 3 3
3 3 2 2 2 2 2 2 2 3 3 3 2 2 2 2 2 2 1 1 1 0 0 0 1 0 1 1 1 1 2 2 3 3 3 3 2 2 2 2 2 2 2
3 3 3 3 3 3 2 2 2 3 3 2 2 2 2 2 2 2 1 1 1 0 0 0 0 1 1 1 1 1 2 2 3 3 3 3 3 2 2 2 2 2 2
3 3 3 3 3 3 3 3 3 3 2 2 2 2 2 2 2 1 1 1 1 1 0 1 1 1 2 2 2 2 2 2 2 2 2 2 2 2 2 2 2 2 2
2 2 2 2 2 3 3 3 3 3 3 3 3 2 2 2 2 1 1 1 1 1 1 1 1 1 1 1 2 2 1 1 2 2 1 1 1 1 1 1 2 1 1
Wind_Direction
199 202 209 206 203 201 207 215 214 216 219 227 227 224 226 228 218 205 233 237 230 253 257 248 259 253 242 236 217 210 210 193 225 276 294 342 330 319 340 340 322 289 294
199 197 206 205 198 201 212 219 212 213 219 221 218 217 228 232 217 213 234 243 240 251 258 258 269 266 258 249 222 218 218 207 199 240 283 347 305 306 330 344 358 3 311
190 193 202 204 201 207 213 213 207 207 209 206 198 216 231 235 226 221 221 232 241 248 249 250 261 255 266 266 242 223 218 204 190 192 234 257 267 56 27 350 349 327 297
186 192 201 206 204 206 204 201 202 199 202 203 206 221 231 233 227 222 224 236 247 250 245 241 242 234 242 238 232 224 206 181 170 176 202 233 241 174 164 252 302 289 280
182 194 205 203 196 193 193 197 199 201 212 205 202 221 231 229 235 230 227 228 232 246 251 247 240 240 236 224 211 202 190 184 177 187 212 225 230 209 216 210 232 268 261
181 198 198 189 190 193 197 193 191 199 204 196 203 211 228 245 244 216 199 215 216 230 245 261 253 253 266 234 219 204 189 186 197 203 218 228 243 234 221 210 209 228 257
186 193 187 184 190 197 197 190 197 203 199 196 208 207 227 243 216 199 189 193 205 225 230 249 270 276 241 252 246 232 221 212 202 204 215 228 228 220 205 213 218 225 242
183 187 184 182 188 187 188 200 204 200 193 198 212 217 224 238 207 195 191 200 221 240 236 227 232 265 263 236 238 257 257 246 233 219 224 234 233 217 205 212 218 219 240
184 192 189 184 184 186 196 201 193 182 195 199 206 214 223 249 220 205 192 208 246 265 256 238 227 248 264 227 220 250 274 278 264 234 237 251 236 194 167 159 188 226 257
198 199 191 186 186 190 193 188 172 170 188 192 209 219 221 245 243 215 195 207 246 267 273 264 250 250 260 236 229 237 258 270 278 278 273 282 245 206 181 196 204 220 250
190 177 175 180 186 182 171 166 157 165 174 192 204 232 245 255 262 231 197 202 224 248 264 271 272 259 249 248 235 239 250 256 258 260 274 290 282 248 226 223 217 215 224
163 164 170 174 180 174 161 164 162 166 178 203 198 239 268 271 262 250 220 216 219 225 249 263 269 270 257 259 248 262 255 205 203 234 259 262 261 258 251 240 236 234 238
163 174 174 167 171 169 169 173 172 177 187 208 217 238 260 266 260 251 240 230 224 225 248 264 281 288 274 259 260 256 223 204 204 237 252 256 258 262 263 250 246 243 251
172 185 176 165 167 174 185 183 184 193 197 206 220 238 251 256 249 247 251 247 241 241 255 274 282 288 277 287 287 258 233 219 224 241 258 271 279 269 267 264 258 245 256
178 188 186 179 180 185 196 198 197 206 200 202 215 220 226 243 244 233 224 234 236 238 239 283 325 324 299 300 292 290 270 250 253 264 267 275 277 271 280 274 256 251 253
182 190 190 186 186 186 187 214 272 235 221 218 221 219 231 233 239 233 234 236 234 202 163 226 256 254 260 266 269 274 269 259 253 252 249 249 254 256 262 266 251 240 253
187 191 188 187 187 192 194 197 232 304 286 236 236 238 237 236 238 236 227 220 200 164 177 233 247 250 255 257 257 261 266 265 251 245 247 250 252 254 252 249 244 251 261
187 189 187 191 193 197 200 204 205 212 232 266 257 241 236 231 234 227 181 122 105 161 219 234 246 255 256 257 258 261 269 269 253 250 252 250 247 248 250 249 246 251 260
186 188 193 195 199 201 199 200 209 216 222 232 242 268 238 207 186 189 162 167 196 211 225 241 250 256 262 264 269 267 268 269 262 251 251 255 253 250 253 254 255 255 256
196 196 192 191 196 200 201 202 207 206 215 226 229 229 194 164 162 177 188 195 202 226 230 239 254 259 263 270 280 283 283 279 273 259 257 256 256 255 257 259 259 259 258
193 192 190 194 200 204 200 204 210 206 211 222 232 222 192 190 193 194 199 201 211 227 230 232 242 256 270 282 292 291 289 293 282 267 261 260 259 261 263 261 264 264 266
178 183 189 199 199 206 208 200 202 206 209 213 222 208 189 188 192 196 204 216 229 232 224 212 219 242 258 268 279 287 292 290 291 291 277 266 264 263 262 263 269 275 279
170 172 175 190 193 193 204 206 201 201 205 207 204 195 186 204 210 208 213 221 206 208 203 193 210 265 295 283 277 270 272 275 274 273 277 276 265 258 258 266 278 291 288
178 178 180 186 189 193 200 204 202 201 200 197 193 191 189 195 204 205 207 208 176 164 183 196 215 264 290 295 286 279 281 284 275 259 258 262 261 255 253 265 272 282 282
185 185 186 188 189 188 185 192 196 196 192 186 188 191 190 184 190 193 185 169 154 164 222 238 243 259 278 279 290 302 303 300 295 298 277 267 273 268 261 266 277 284 291
186 184 190 185 180 175 178 186 190 187 184 183 181 175 176 177 180 178 172 155 164 203 247 259 291 299 299 280 291 310 315 317 324 323 312 299 298 295 286 278 285 286 294